,,,PA_Meas_PMT16A,,PR_Meas_QMR101_102,,RH_Meas_QMH101,,SR_Meas_QMS101,,TA_Meas_QMH101,,GenWind,,GenWind,
date,time,status,PA,status,PR,status,RH,status,SR,status,TA,status,DirAvg,status,SpdAvg,
2010-12-29, 00:00:05,VALID,1002.85,VALID,0,INVALID,163.647,VALID,0,VALID,24.6166,VALID,340,VALID,0.105078,
2010-12-29, 00:01:05,VALID,1002.86,VALID,0,INVALID,163.662,VALID,0,VALID,24.6574,VALID,340,VALID,0.286719,
2010-12-29, 00:02:05,VALID,1002.88,VALID,0,INVALID,163.647,VALID,0,VALID,24.638,VALID,340,VALID,0.0621094,
2010-12-29, 00:03:05,VALID,1002.88,VALID,0,INVALID,163.67,VALID,0,VALID,24.6361,VALID,340,VALID,0.172266,
2010-12-29, 00:04:05,VALID,1002.9,VALID,0,INVALID,163.662,VALID,0,VALID,24.6574,VALID,340,VALID,0,
2010-12-29, 00:05:05,VALID,1002.91,VALID,0,INVALID,163.655,VALID,0,VALID,24.675,VALID,340,VALID,0.285547,
2010-12-29, 00:06:05,VALID,1002.91,VALID,0,INVALID,163.67,VALID,0,VALID,24.675,VALID,340,VALID,0.355469,
2010-12-29, 00:07:05,VALID,1002.86,VALID,0,INVALID,163.639,VALID,0,VALID,24.6945,VALID,340,VALID,0.435937,
2010-12-29, 00:08:05,VALID,1002.85,VALID,0,INVALID,163.624,VALID,0,VALID,24.7335,VALID,333,VALID,0.525391,
2010-12-29, 00:09:05,VALID,1002.85,VALID,0,INVALID,163.639,VALID,0,VALID,24.7529,VALID,334,VALID,0.405859,
2010-12-29, 00:10:05,VALID,1002.79,VALID,0,INVALID,163.639,VALID,0,VALID,24.7335,VALID,334,VALID,0.537109,
2010-12-29, 00:11:05,VALID,1002.76,VALID,0,INVALID,163.647,VALID,0,VALID,24.7743,VALID,334,VALID,0.337109,
2010-12-29, 00:12:05,VALID,1002.72,VALID,0,INVALID,163.639,VALID,0,VALID,24.7743,VALID,336,VALID,0.574219,
2010-12-29, 00:13:05,VALID,1002.74,VALID,0,INVALID,163.678,VALID,0,VALID,24.7335,VALID,336,VALID,0.419531,
2010-12-29, 00:14:05,VALID,1002.72,VALID,0,INVALID,163.67,VALID,0,VALID,24.7548,VALID,336,VALID,0.541406,
2010-12-29, 00:15:05,VALID,1002.69,VALID,0,INVALID,163.67,VALID,0,VALID,24.7724,VALID,357,VALID,0.553516,
2010-12-29, 00:16:05,VALID,1002.67,VALID,0,INVALID,163.662,VALID,0,VALID,24.7919,VALID,355,VALID,0.650391,
2010-12-29, 00:17:05,VALID,1002.66,VALID,0,INVALID,163.647,VALID,0,VALID,24.8308,VALID,344,VALID,0.728906,
2010-12-29, 00:18:05,VALID,1002.64,VALID,0,INVALID,163.639,VALID,0,VALID,24.8892,VALID,345,VALID,0.477734,
2010-12-29, 00:19:05,VALID,1002.61,VALID,0,INVALID,163.639,VALID,0,VALID,24.93,VALID,344,VALID,0.359375,
2010-12-29, 00:20:05,VALID,1002.56,VALID,0,INVALID,163.624,VALID,0,VALID,24.9495,VALID,345,VALID,0.637109,
2010-12-29, 00:21:05,VALID,1002.51,VALID,0,INVALID,163.632,VALID,0,VALID,24.969,VALID,346,VALID,0.498047,
2010-12-29, 00:22:05,VALID,1002.48,VALID,0,INVALID,163.662,VALID,0,VALID,24.9866,VALID,344,VALID,0.575,
2010-12-29, 00:23:05,VALID,1002.41,VALID,0,INVALID,163.609,VALID,0,VALID,25.0255,VALID,345,VALID,0.625781,
2010-12-29, 00:24:05,VALID,1002.35,VALID,0,INVALID,163.609,VALID,0,VALID,25.0663,VALID,352,VALID,1.03164,
2010-12-29, 00:25:05,VALID,1002.29,VALID,0,INVALID,163.624,VALID,0,VALID,25.1267,VALID,349,VALID,0.803516,
2010-12-29, 00:26:05,VALID,1002.29,VALID,0,INVALID,163.647,VALID,0,VALID,25.1637,VALID,351,VALID,0.693359,
2010-12-29, 00:27:05,VALID,1002.29,VALID,0,INVALID,163.632,VALID,0,VALID,25.2007,VALID,344,VALID,0.804297,
2010-12-29, 00:28:05,VALID,1002.26,VALID,0,INVALID,163.609,VALID,0,VALID,25.2611,VALID,329,VALID,1.10703,
2010-12-29, 00:29:05,VALID,1002.25,VALID,0,INVALID,163.617,VALID,0,VALID,25.3195,VALID,355,VALID,0.815234,
2010-12-29, 00:30:05,VALID,1002.3,VALID,0,INVALID,163.601,VALID,0,VALID,25.3584,VALID,360,VALID,1.23164,
2010-12-29, 00:31:05,VALID,1002.29,VALID,0,INVALID,163.609,VALID,0,VALID,25.4169,VALID,354,VALID,0.876953,
2010-12-29, 00:32:05,VALID,1002.3,VALID,0,INVALID,163.609,VALID,0,VALID,25.4753,VALID,12,VALID,0.685156,
2010-12-29, 00:33:05,VALID,1002.29,VALID,0,INVALID,163.609,VALID,0,VALID,25.4948,VALID,358,VALID,0.851172,
2010-12-29, 00:34:05,VALID,1002.27,VALID,0,INVALID,163.617,VALID,0,VALID,25.4948,VALID,332,VALID,1.2375,
2010-12-29, 00:35:05,VALID,1002.25,VALID,0,INVALID,163.609,VALID,0,VALID,25.5142,VALID,341,VALID,0.552344,
2010-12-29, 00:36:05,VALID,1002.21,VALID,0,INVALID,163.609,VALID,0,VALID,25.5532,VALID,345,VALID,1.00664,
2010-12-29, 00:37:05,VALID,1002.21,VALID,0,INVALID,163.609,VALID,0,VALID,25.5921,VALID,331,VALID,0.578125,
2010-12-29, 00:38:05,VALID,1002.19,VALID,0,INVALID,163.586,VALID,0,VALID,25.6311,VALID,337,VALID,0.675391,
2010-12-29, 00:39:04,VALID,1002.25,VALID,0,INVALID,163.586,VALID,0,VALID,25.6486,VALID,346,VALID,0.582031,
2010-12-29, 00:40:04,VALID,1002.3,VALID,0,INVALID,163.586,VALID,0,VALID,25.6486,VALID,342,VALID,0.253516,
2010-12-29, 00:41:04,VALID,1002.3,VALID,0,INVALID,163.586,VALID,0.100563,VALID,25.6272,VALID,297,VALID,0.611719,
2010-12-29, 00:42:04,VALID,1002.29,VALID,0,INVALID,163.617,VALID,0.100563,VALID,25.6681,VALID,344,VALID,0.323047,
2010-12-29, 00:43:04,VALID,1002.25,VALID,0,INVALID,163.594,VALID,0.100563,VALID,25.6467,VALID,2,VALID,0.357812,
2010-12-29, 00:44:04,VALID,1002.15,VALID,0,INVALID,163.594,VALID,0,VALID,25.6876,VALID,1,VALID,0.682031,
2010-12-29, 00:45:04,VALID,1002.08,VALID,0,INVALID,163.586,VALID,0.100563,VALID,25.6681,VALID,353,VALID,0.667578,
2010-12-29, 00:46:04,VALID,1001.97,VALID,0,INVALID,163.594,VALID,0.100563,VALID,25.6272,VALID,353,VALID,0.446875,
2010-12-29, 00:47:04,VALID,1001.96,VALID,0,INVALID,163.601,VALID,0.100563,VALID,25.6077,VALID,358,VALID,0.760938,
2010-12-29, 00:48:04,VALID,1001.98,VALID,0,INVALID,163.586,VALID,0,VALID,25.6097,VALID,347,VALID,0.717578,
2010-12-29, 00:49:04,VALID,1002.05,VALID,0,INVALID,163.586,VALID,0,VALID,25.5902,VALID,350,VALID,0.522266,
2010-12-29, 00:50:04,VALID,1002.09,VALID,0,INVALID,163.609,VALID,0.100563,VALID,25.5707,VALID,346,VALID,0.389062,
2010-12-29, 00:51:04,VALID,1002.11,VALID,0,INVALID,163.586,VALID,0.100563,VALID,25.5707,VALID,353,VALID,0.90625,
2010-12-29, 00:52:04,VALID,1002.1,VALID,0,INVALID,163.617,VALID,0.100563,VALID,25.5513,VALID,348,VALID,0.675391,
2010-12-29, 00:53:04,VALID,1002.1,VALID,0,INVALID,163.594,VALID,0,VALID,25.5707,VALID,341,VALID,0.415625,
2010-12-29, 00:54:04,VALID,1002.06,VALID,0,INVALID,163.609,VALID,0,VALID,25.5707,VALID,349,VALID,0.670703,
2010-12-29, 00:55:04,VALID,1002.02,VALID,0,INVALID,163.594,VALID,0,VALID,25.5532,VALID,1,VALID,0.737109,
2010-12-29, 00:56:04,VALID,1001.99,VALID,0,INVALID,163.594,VALID,0,VALID,25.5921,VALID,360,VALID,0.909375,
2010-12-29, 00:57:04,VALID,1001.99,VALID,0,INVALID,163.601,VALID,0,VALID,25.5921,VALID,351,VALID,1.02109,
2010-12-29, 00:58:04,VALID,1002.02,VALID,0,INVALID,163.609,VALID,0,VALID,25.5941,VALID,335,VALID,0.716016,
2010-12-29, 00:59:04,VALID,1002.01,VALID,0,INVALID,163.601,VALID,0,VALID,25.5707,VALID,328,VALID,0.316797,
2010-12-29, 01:00:04,VALID,1002.03,VALID,0,INVALID,163.578,VALID,0,VALID,25.6116,VALID,294,VALID,0.619922,
2010-12-29, 01:01:04,VALID,1002.08,VALID,0,INVALID,163.609,VALID,0,VALID,25.5921,VALID,358,VALID,0.186719,
2010-12-29, 01:02:04,VALID,1002.07,VALID,0,INVALID,163.594,VALID,0,VALID,25.5921,VALID,327,VALID,0.487109,
2010-12-29, 01:03:04,VALID,1002.09,VALID,0,INVALID,163.586,VALID,0,VALID,25.5727,VALID,8,VALID,0.559766,
2010-12-29, 01:04:04,VALID,1002.09,VALID,0,INVALID,163.594,VALID,0,VALID,25.5727,VALID,13,VALID,0.280469,
2010-12-29, 01:05:04,VALID,1002.1,VALID,0,INVALID,163.594,VALID,0,VALID,25.5532,VALID,320,VALID,0.257031,
2010-12-29, 01:06:04,VALID,1002.05,VALID,0,INVALID,163.617,VALID,0,VALID,25.5123,VALID,290,VALID,0.280469,
2010-12-29, 01:07:04,VALID,1002.04,VALID,0,INVALID,163.601,VALID,0,VALID,25.5337,VALID,275,VALID,0.245312,
2010-12-29, 01:08:04,VALID,1002,VALID,0,INVALID,163.586,VALID,0,VALID,25.5142,VALID,360,VALID,0.645312,
2010-12-29, 01:09:04,VALID,1001.98,VALID,0,INVALID,163.609,VALID,0,VALID,25.4734,VALID,356,VALID,0.762109,
2010-12-29, 01:10:04,VALID,1001.96,VALID,0,INVALID,163.601,VALID,0,VALID,25.4948,VALID,352,VALID,0.855859,
2010-12-29, 01:11:04,VALID,1001.94,VALID,0,INVALID,163.609,VALID,0,VALID,25.4734,VALID,335,VALID,0.615625,
2010-12-29, 01:12:04,VALID,1001.95,VALID,0,INVALID,163.586,VALID,0,VALID,25.4734,VALID,355,VALID,0.590625,
2010-12-29, 01:13:04,VALID,1001.97,VALID,0,INVALID,163.578,VALID,0,VALID,25.4948,VALID,1,VALID,0.706641,
2010-12-29, 01:14:04,VALID,1001.95,VALID,0,INVALID,163.617,VALID,0,VALID,25.4539,VALID,353,VALID,0.575781,
2010-12-29, 01:15:04,VALID,1001.97,VALID,0,INVALID,163.586,VALID,0,VALID,25.4539,VALID,350,VALID,0.797266,
2010-12-29, 01:16:04,VALID,1001.99,VALID,0,INVALID,163.617,VALID,0,VALID,25.4948,VALID,340,VALID,0.860937,
2010-12-29, 01:17:04,VALID,1002,VALID,0,INVALID,163.617,VALID,0,VALID,25.4539,VALID,348,VALID,0.7375,
2010-12-29, 01:18:04,VALID,1001.99,VALID,0,INVALID,163.609,VALID,0,VALID,25.4948,VALID,352,VALID,0.90625,
2010-12-29, 01:19:04,VALID,1001.95,VALID,0,INVALID,163.609,VALID,0,VALID,25.5142,VALID,336,VALID,0.901172,
2010-12-29, 01:20:04,VALID,1001.9,VALID,0,INVALID,163.594,VALID,0,VALID,25.5337,VALID,334,VALID,0.51875,
2010-12-29, 01:21:04,VALID,1001.83,VALID,0,INVALID,163.601,VALID,0,VALID,25.5318,VALID,352,VALID,1.13555,
2010-12-29, 01:22:04,VALID,1001.75,VALID,0,INVALID,163.571,VALID,0,VALID,25.5337,VALID,341,VALID,0.770312,
2010-12-29, 01:23:04,VALID,1001.73,VALID,0,INVALID,163.601,VALID,0,VALID,25.5318,VALID,351,VALID,1.13711,
2010-12-29, 01:24:04,VALID,1001.61,VALID,0,INVALID,163.601,VALID,0,VALID,25.5532,VALID,355,VALID,0.894141,
2010-12-29, 01:25:04,VALID,1001.58,VALID,0,INVALID,163.617,VALID,0,VALID,25.5727,VALID,353,VALID,0.73125,
2010-12-29, 01:26:04,VALID,1001.54,VALID,0,INVALID,163.609,VALID,0,VALID,25.5727,VALID,1,VALID,0.929297,
2010-12-29, 01:27:04,VALID,1001.5,VALID,0,INVALID,163.601,VALID,0,VALID,25.5727,VALID,1,VALID,0.648828,
2010-12-29, 01:28:04,VALID,1001.49,VALID,0,INVALID,163.609,VALID,0,VALID,25.5123,VALID,352,VALID,0.783203,
2010-12-29, 01:29:04,VALID,1001.46,VALID,0,INVALID,163.601,VALID,0,VALID,25.5357,VALID,351,VALID,0.573438,
2010-12-29, 01:30:04,VALID,1001.45,VALID,0,INVALID,163.594,VALID,0,VALID,25.5337,VALID,351,VALID,0.98125,
2010-12-29, 01:31:04,VALID,1001.44,VALID,0,INVALID,163.578,VALID,0,VALID,25.5142,VALID,342,VALID,1.43125,
2010-12-29, 01:32:04,VALID,1001.45,VALID,0,INVALID,163.571,VALID,0,VALID,25.5532,VALID,347,VALID,0.923828,
2010-12-29, 01:33:04,VALID,1001.46,VALID,0,INVALID,151.922,VALID,0,VALID,25.5921,VALID,353,VALID,0.895703,
2010-12-29, 01:34:04,VALID,1001.45,VALID,0,INVALID,141.851,VALID,0,VALID,25.6311,VALID,345,VALID,1.08867,
2010-12-29, 01:35:04,VALID,1001.42,VALID,0,INVALID,138.441,VALID,0,VALID,25.67,VALID,4,VALID,0.478516,
2010-12-29, 01:36:04,VALID,1001.42,VALID,0,INVALID,132.086,VALID,0,VALID,25.67,VALID,343,VALID,0.764063,
2010-12-29, 01:37:04,VALID,1001.37,VALID,0,INVALID,121.627,VALID,0,VALID,25.709,VALID,347,VALID,1.35508,
2010-12-29, 01:38:04,VALID,1001.34,VALID,0,INVALID,117.302,VALID,0,VALID,25.7285,VALID,6,VALID,1.02031,
2010-12-29, 01:39:04,VALID,1001.38,VALID,0,INVALID,115.013,VALID,0,VALID,25.7674,VALID,352,VALID,0.609375,
2010-12-29, 01:40:04,VALID,1001.37,VALID,0,INVALID,114.662,VALID,0.100563,VALID,25.785,VALID,351,VALID,0.412891,
2010-12-29, 01:41:04,VALID,1001.4,VALID,0,INVALID,112.846,VALID,0.100563,VALID,25.783,VALID,351,VALID,0.412109,
2010-12-29, 01:42:04,VALID,1001.44,VALID,0,INVALID,111.267,VALID,0.100563,VALID,25.8044,VALID,346,VALID,0.665625,
2010-12-29, 01:43:04,VALID,1001.5,VALID,0,INVALID,111.893,VALID,0,VALID,25.785,VALID,353,VALID,0.689844,
2010-12-29, 01:44:04,VALID,1001.57,VALID,0,INVALID,110.268,VALID,0,VALID,25.785,VALID,349,VALID,0.699609,
2010-12-29, 01:45:04,VALID,1001.63,VALID,0,INVALID,110.474,VALID,0.100563,VALID,25.783,VALID,350,VALID,0.753125,
2010-12-29, 01:46:04,VALID,1001.7,VALID,0,INVALID,110.146,VALID,0,VALID,25.7635,VALID,359,VALID,0.662891,
2010-12-29, 01:47:04,VALID,1001.76,VALID,0,INVALID,110.329,VALID,0.100563,VALID,25.785,VALID,18,VALID,0.775391,
2010-12-29, 01:48:04,VALID,1001.8,VALID,0,INVALID,111.115,VALID,0.100563,VALID,25.8259,VALID,352,VALID,0.686719,
2010-12-29, 01:49:04,VALID,1001.82,VALID,0,INVALID,110.916,VALID,0.100563,VALID,25.785,VALID,355,VALID,0.704297,
2010-12-29, 01:50:04,VALID,1001.85,VALID,0,VALID,104,VALID,0.100563,VALID,25.785,VALID,7,VALID,1.03437,
2010-12-29, 01:51:04,VALID,1001.79,VALID,0,VALID,104,VALID,0.100563,VALID,25.8044,VALID,13,VALID,0.537109,
2010-12-29, 01:52:04,VALID,1001.72,VALID,0,VALID,104,VALID,0,VALID,25.8239,VALID,341,VALID,0.491797,
2010-12-29, 01:53:04,VALID,1001.63,VALID,0,VALID,104,VALID,0.100563,VALID,25.8434,VALID,342,VALID,0.230469,
2010-12-29, 01:54:04,VALID,1001.49,VALID,0,VALID,104,VALID,0.100563,VALID,25.8239,VALID,342,VALID,0.104297,
2010-12-29, 01:55:04,VALID,1001.4,VALID,0,VALID,104,VALID,0,VALID,25.8453,VALID,342,VALID,0.228906,
2010-12-29, 01:56:04,VALID,1001.34,VALID,0,VALID,104,VALID,0,VALID,25.8239,VALID,341,VALID,0.366016,
2010-12-29, 01:57:04,VALID,1001.35,VALID,0,VALID,104,VALID,0,VALID,25.8453,VALID,11,VALID,0.537109,
2010-12-29, 01:58:04,VALID,1001.35,VALID,0,VALID,104,VALID,0,VALID,25.8453,VALID,308,VALID,0.619141,
2010-12-29, 01:59:04,VALID,1001.33,VALID,0,VALID,104,VALID,0,VALID,25.8843,VALID,355,VALID,0.187891,
2010-12-29, 02:00:04,VALID,1001.3,VALID,0,VALID,104,VALID,0,VALID,25.8843,VALID,1,VALID,0.249219,
2010-12-29, 02:01:04,VALID,1001.27,VALID,0,VALID,104,VALID,0,VALID,25.9038,VALID,344,VALID,0.992188,
2010-12-29, 02:02:04,VALID,1001.22,VALID,0,VALID,104,VALID,0,VALID,25.8843,VALID,325,VALID,0.262891,
2010-12-29, 02:03:04,VALID,1001.16,VALID,0,VALID,104,VALID,0,VALID,25.8648,VALID,325,VALID,0.0113281,
2010-12-29, 02:04:04,VALID,1001.14,VALID,0,VALID,104,VALID,0,VALID,25.8648,VALID,270,VALID,0.355469,
2010-12-29, 02:05:04,VALID,1001.12,VALID,0,VALID,104,VALID,0,VALID,25.8453,VALID,270,VALID,0.225781,
2010-12-29, 02:06:04,VALID,1001.2,VALID,0,VALID,104,VALID,0,VALID,25.8453,VALID,270,VALID,0.176563,
2010-12-29, 02:07:04,VALID,1001.24,VALID,0,VALID,104,VALID,0,VALID,25.8453,VALID,314,VALID,0.457812,
2010-12-29, 02:08:04,VALID,1001.28,VALID,0,VALID,104,VALID,0,VALID,25.8453,VALID,345,VALID,0.287109,
2010-12-29, 02:09:04,VALID,1001.31,VALID,0,VALID,104,VALID,0,VALID,25.8648,VALID,341,VALID,0.323828,
2010-12-29, 02:10:04,VALID,1001.35,VALID,0,VALID,104,VALID,0,VALID,25.8648,VALID,350,VALID,0.638281,
2010-12-29, 02:11:04,VALID,1001.32,VALID,0,VALID,104,VALID,0,VALID,25.8648,VALID,357,VALID,0.198828,
2010-12-29, 02:12:04,VALID,1001.28,VALID,0,VALID,104,VALID,0,VALID,25.8843,VALID,5,VALID,0.281641,
2010-12-29, 02:13:04,VALID,1001.2,VALID,0,VALID,104,VALID,0,VALID,25.8648,VALID,1,VALID,0.364844,
2010-12-29, 02:14:04,VALID,1001.11,VALID,0,VALID,104,VALID,0,VALID,25.8648,VALID,360,VALID,0.450391,
2010-12-29, 02:15:04,VALID,1001.06,VALID,0,VALID,104,VALID,0,VALID,25.8648,VALID,358,VALID,0.273438,
2010-12-29, 02:16:04,VALID,1001,VALID,0,VALID,104,VALID,0,VALID,25.8453,VALID,360,VALID,0.618359,
2010-12-29, 02:17:04,VALID,1001,VALID,0,VALID,104,VALID,0,VALID,25.8453,VALID,353,VALID,0.649219,
2010-12-29, 02:18:04,VALID,1001.03,VALID,0,VALID,104,VALID,0,VALID,25.8259,VALID,358,VALID,0.741406,
2010-12-29, 02:19:04,VALID,1001.1,VALID,0,VALID,104,VALID,0,VALID,25.8064,VALID,353,VALID,0.895703,
2010-12-29, 02:20:04,VALID,1001.16,VALID,0,VALID,104,VALID,0,VALID,25.8083,VALID,359,VALID,0.608203,
2010-12-29, 02:21:04,VALID,1001.15,VALID,0,VALID,104,VALID,0,VALID,25.8064,VALID,358,VALID,0.483984,
2010-12-29, 02:22:04,VALID,1001.14,VALID,0,VALID,104,VALID,0,VALID,25.748,VALID,328,VALID,0.683594,
2010-12-29, 02:23:04,VALID,1001.1,VALID,0,INVALID,109.81,VALID,0,VALID,25.748,VALID,337,VALID,0.480469,
2010-12-29, 02:24:04,VALID,1001.07,VALID,0,INVALID,113.373,VALID,0,VALID,25.709,VALID,343,VALID,0.678906,
2010-12-29, 02:25:04,VALID,1001.08,VALID,0,INVALID,115.135,VALID,0,VALID,25.709,VALID,329,VALID,0.299609,
2010-12-29, 02:26:04,VALID,1001.08,VALID,0,INVALID,115.883,VALID,0,VALID,25.6681,VALID,4,VALID,0.555078,
2010-12-29, 02:27:04,VALID,1001.07,VALID,0,INVALID,118.004,VALID,0,VALID,25.6895,VALID,20,VALID,0.0789063,
2010-12-29, 02:28:04,VALID,1001,VALID,0,INVALID,118.042,VALID,0,VALID,25.67,VALID,292,VALID,0.862891,
2010-12-29, 02:29:04,VALID,1000.97,VALID,0,INVALID,118.148,VALID,0,VALID,25.67,VALID,309,VALID,0.575781,
2010-12-29, 02:30:04,VALID,1000.93,VALID,0,INVALID,117.065,VALID,0,VALID,25.67,VALID,294,VALID,0.779688,
2010-12-29, 02:31:04,VALID,1000.9,VALID,0,INVALID,119.636,VALID,0,VALID,25.67,VALID,294,VALID,1.28242,
2010-12-29, 02:32:04,VALID,1000.87,VALID,0,INVALID,118.385,VALID,0,VALID,25.67,VALID,294,VALID,1.20781,
2010-12-29, 02:33:04,VALID,1000.87,VALID,0,INVALID,119.804,VALID,0,VALID,25.6292,VALID,299,VALID,1.00273,
2010-12-29, 02:34:04,VALID,1000.93,VALID,0,INVALID,122.337,VALID,0,VALID,25.6506,VALID,284,VALID,0.948438,
2010-12-29, 02:35:04,VALID,1000.95,VALID,0,INVALID,127.051,VALID,0,VALID,25.6097,VALID,295,VALID,0.263672,
2010-12-29, 02:36:04,VALID,1001.03,VALID,0,INVALID,128.562,VALID,0,VALID,25.6116,VALID,327,VALID,0.436719,
2010-12-29, 02:37:04,VALID,1001.05,VALID,0,INVALID,127.875,VALID,0,VALID,25.5921,VALID,344,VALID,0.591406,
2010-12-29, 02:38:04,VALID,1001.13,VALID,0,INVALID,128.493,VALID,0,VALID,25.5532,VALID,2,VALID,1.2707,
2010-12-29, 02:39:04,VALID,1001.14,VALID,0,INVALID,133.017,VALID,0,VALID,25.5337,VALID,356,VALID,0.649219,
2010-12-29, 02:40:04,VALID,1001.12,VALID,0,INVALID,141.455,VALID,0,VALID,25.4909,VALID,355,VALID,0.75,
2010-12-29, 02:41:04,VALID,1001.13,VALID,0,INVALID,156.819,VALID,0,VALID,25.4928,VALID,352,VALID,0.652344,
2010-12-29, 02:42:04,VALID,1001.1,VALID,0,INVALID,163.54,VALID,0.100563,VALID,25.4734,VALID,344,VALID,0.755469,
2010-12-29, 02:43:04,VALID,1001.07,VALID,0,INVALID,163.578,VALID,0,VALID,25.4344,VALID,344,VALID,0.533594,
2010-12-29, 02:44:04,VALID,1001.07,VALID,0,INVALID,163.609,VALID,0.100563,VALID,25.3955,VALID,349,VALID,0.798437,
2010-12-29, 02:45:04,VALID,1001.04,VALID,0,INVALID,163.578,VALID,0.100563,VALID,25.3955,VALID,353,VALID,0.895312,
2010-12-29, 02:46:04,VALID,1001.01,VALID,0,INVALID,163.609,VALID,0.100563,VALID,25.4149,VALID,353,VALID,0.194141,
2010-12-29, 02:47:04,VALID,1000.96,VALID,0,INVALID,163.594,VALID,0.100563,VALID,25.4149,VALID,352,VALID,0.311328,
2010-12-29, 02:48:04,VALID,1000.94,VALID,0,INVALID,163.586,VALID,0.100563,VALID,25.4149,VALID,17,VALID,0.242969,
2010-12-29, 02:49:04,VALID,1000.93,VALID,0,INVALID,163.578,VALID,0.100563,VALID,25.4344,VALID,1,VALID,0.317578,
2010-12-29, 02:50:04,VALID,1000.91,VALID,0,INVALID,163.609,VALID,0.100563,VALID,25.3935,VALID,306,VALID,0.440234,
2010-12-29, 02:51:04,VALID,1000.95,VALID,0,INVALID,163.571,VALID,0.100563,VALID,25.4149,VALID,328,VALID,0.444141,
2010-12-29, 02:52:04,VALID,1000.94,VALID,0,INVALID,163.563,VALID,0.100563,VALID,25.4344,VALID,354,VALID,0.96875,
2010-12-29, 02:53:04,VALID,1000.95,VALID,0,INVALID,163.594,VALID,0,VALID,25.4344,VALID,353,VALID,0.591797,
2010-12-29, 02:54:04,VALID,1000.93,VALID,0,INVALID,163.586,VALID,0.100563,VALID,25.4344,VALID,353,VALID,0.533984,
2010-12-29, 02:55:04,VALID,1000.96,VALID,0,INVALID,163.609,VALID,0,VALID,25.376,VALID,353,VALID,0.376563,
2010-12-29, 02:56:04,VALID,1000.97,VALID,0,INVALID,163.624,VALID,0,VALID,25.3565,VALID,346,VALID,0.595312,
2010-12-29, 02:57:04,VALID,1000.98,VALID,0,INVALID,163.609,VALID,0,VALID,25.3584,VALID,344,VALID,0.341797,
2010-12-29, 02:58:04,VALID,1001.03,VALID,0,INVALID,163.609,VALID,0,VALID,25.2981,VALID,344,VALID,0.0757812,
2010-12-29, 02:59:04,VALID,1001.1,VALID,0,INVALID,163.624,VALID,0,VALID,25.3176,VALID,344,VALID,0,
2010-12-29, 03:00:04,VALID,1001.13,VALID,0,INVALID,163.601,VALID,0,VALID,25.2981,VALID,344,VALID,0,
2010-12-29, 03:01:04,VALID,1001.18,VALID,0,INVALID,163.632,VALID,0,VALID,25.3,VALID,344,VALID,0,
2010-12-29, 03:02:04,VALID,1001.25,VALID,0,INVALID,163.647,VALID,0,VALID,25.3214,VALID,344,VALID,0.20625,
2010-12-29, 03:03:04,VALID,1001.3,VALID,0,INVALID,163.601,VALID,0,VALID,25.2611,VALID,344,VALID,0.289063,
2010-12-29, 03:04:04,VALID,1001.31,VALID,0,INVALID,163.624,VALID,0,VALID,25.2202,VALID,360,VALID,0.4,
2010-12-29, 03:05:04,VALID,1001.29,VALID,0,INVALID,163.639,VALID,0,VALID,25.2221,VALID,360,VALID,0.227734,
2010-12-29, 03:06:04,VALID,1001.22,VALID,0,INVALID,163.609,VALID,0,VALID,25.2027,VALID,360,VALID,0,
2010-12-29, 03:07:04,VALID,1001.15,VALID,0,INVALID,163.617,VALID,0,VALID,25.1813,VALID,360,VALID,0,
2010-12-29, 03:08:04,VALID,1001.08,VALID,0,INVALID,163.639,VALID,0,VALID,25.1618,VALID,360,VALID,0.000390625,
2010-12-29, 03:09:04,VALID,1001.06,VALID,0,INVALID,163.632,VALID,0,VALID,25.1832,VALID,360,VALID,0.229297,
2010-12-29, 03:10:04,VALID,1001.08,VALID,0,INVALID,163.632,VALID,0,VALID,25.1832,VALID,360,VALID,0.00585938,
2010-12-29, 03:11:04,VALID,1001.14,VALID,0,INVALID,163.67,VALID,0,VALID,25.1423,VALID,360,VALID,0,
2010-12-29, 03:12:04,VALID,1001.18,VALID,0,INVALID,163.647,VALID,0,VALID,25.1637,VALID,360,VALID,0.225391,
2010-12-29, 03:13:04,VALID,1001.24,VALID,0,INVALID,163.632,VALID,0,VALID,25.1442,VALID,360,VALID,0.130078,
2010-12-29, 03:14:04,VALID,1001.21,VALID,0,INVALID,163.655,VALID,0,VALID,25.1229,VALID,360,VALID,0,
2010-12-29, 03:15:04,VALID,1001.13,VALID,0,INVALID,163.639,VALID,0,VALID,25.1034,VALID,360,VALID,0.153906,
2010-12-29, 03:16:04,VALID,1001.06,VALID,0,INVALID,163.639,VALID,0,VALID,25.1053,VALID,360,VALID,0.0242187,
2010-12-29, 03:17:04,VALID,1001.04,VALID,0,INVALID,163.655,VALID,0,VALID,25.0644,VALID,360,VALID,0.3375,
2010-12-29, 03:18:04,VALID,1001.05,VALID,0,INVALID,163.639,VALID,0,VALID,25.0858,VALID,360,VALID,0.711719,
2010-12-29, 03:19:04,VALID,1001.12,VALID,0,INVALID,163.624,VALID,0,VALID,25.0255,VALID,1,VALID,0.808594,
2010-12-29, 03:20:04,VALID,1001.19,VALID,0,INVALID,163.624,VALID,0,VALID,24.9885,VALID,15,VALID,1.03945,
2010-12-29, 03:21:04,VALID,1001.22,VALID,0,INVALID,163.647,VALID,0,VALID,24.969,VALID,17,VALID,0.698828,
2010-12-29, 03:22:04,VALID,1001.22,VALID,0,INVALID,163.678,VALID,0,VALID,24.93,VALID,17,VALID,0.609766,
2010-12-29, 03:23:04,VALID,1001.28,VALID,0,INVALID,163.662,VALID,0,VALID,24.9125,VALID,18,VALID,0.222656,
2010-12-29, 03:24:04,VALID,1001.32,VALID,0,INVALID,163.655,VALID,0,VALID,24.8911,VALID,18,VALID,0.175,
2010-12-29, 03:25:04,VALID,1001.43,VALID,0,INVALID,163.662,VALID,0,VALID,24.8522,VALID,18,VALID,0.295312,
2010-12-29, 03:26:04,VALID,1001.5,VALID,0,INVALID,163.662,VALID,0,VALID,24.8308,VALID,41,VALID,0.501953,
2010-12-29, 03:27:04,VALID,1001.56,VALID,0,INVALID,163.662,VALID,0,VALID,24.8522,VALID,75,VALID,0.716797,
2010-12-29, 03:28:04,VALID,1001.56,VALID,0,INVALID,163.67,VALID,0,VALID,24.8132,VALID,88,VALID,0.373828,
2010-12-29, 03:29:04,VALID,1001.59,VALID,0,INVALID,163.662,VALID,0,VALID,24.8132,VALID,87,VALID,0.7,
2010-12-29, 03:30:04,VALID,1001.58,VALID,0,INVALID,163.67,VALID,0,VALID,24.7937,VALID,87,VALID,0.557422,
2010-12-29, 03:31:04,VALID,1001.56,VALID,0,INVALID,163.678,VALID,0,VALID,24.7743,VALID,87,VALID,0.273047,
2010-12-29, 03:32:04,VALID,1001.56,VALID,0,INVALID,163.685,VALID,0,VALID,24.7335,VALID,87,VALID,0.00546875,
2010-12-29, 03:33:04,VALID,1001.59,VALID,0,INVALID,163.662,VALID,0,VALID,24.7353,VALID,85,VALID,0.384375,
2010-12-29, 03:34:04,VALID,1001.62,VALID,0,INVALID,163.655,VALID,0,VALID,24.7529,VALID,69,VALID,0.344531,
2010-12-29, 03:35:04,VALID,1001.62,VALID,0,INVALID,163.678,VALID,0,VALID,24.7548,VALID,69,VALID,0.458594,
2010-12-29, 03:36:04,VALID,1001.59,VALID,0,INVALID,163.662,VALID,0,VALID,24.7335,VALID,69,VALID,0.266016,
2010-12-29, 03:37:04,VALID,1001.56,VALID,0,INVALID,163.678,VALID,0,VALID,24.7335,VALID,69,VALID,0.168359,
2010-12-29, 03:38:04,VALID,1001.52,VALID,0,INVALID,163.655,VALID,0,VALID,24.714,VALID,69,VALID,0,
2010-12-29, 03:39:04,VALID,1001.51,VALID,0,INVALID,163.67,VALID,0,VALID,24.7353,VALID,69,VALID,0,
2010-12-29, 03:40:04,VALID,1001.49,VALID,0,INVALID,163.67,VALID,0,VALID,24.7353,VALID,69,VALID,0.11875,
2010-12-29, 03:41:04,VALID,1001.47,VALID,0,INVALID,163.662,VALID,0,VALID,24.6945,VALID,69,VALID,0.265625,